www.pogodaiklimat.ru

Погода и климат >> Архив погоды >> Россия >> Ямало-Ненецкий АО >> Имени Попова


АРХИВ ПОГОДЫ в Имени Попова

Время (UTC), дата Ветер
(напр.,м/с)
 
Видим.   Явления Облачность Т
(С)
Тd
(С)
f
(%)
Тe
(С)
Тes
(С)
Комфортность P
(гПа)
Po
(гПа)
Тmin
(С)
Tmax
(С)
R
(мм)
R24
(мм)
S
(см)
09 18.06 ЮВ 3 20 км 3/0
[Ci fib]
+2.1 -0.1 85 -2 +5 997.8 997.1
12 18.06 В 3 20 км 3/0
[Ci]
+1.1 +0.1 93 -4 0 998.8 998.1
15 18.06 В 5 500 м туман 9/0
[Ac trans]
-0.3 -0.4 99 -7 -6 999.0 998.3 +2.3
18 18.06 СВ 5 4000 м дымка {туман} 10/10 180 м
[St]
-0.1 -0.3 99 -6 -6 998.6 997.9
21 18.06 С 7 2000 м снег 10/10 150 м
[Frnb Ns]
0.0 -0.1 99 -7 -7 997.0 996.3
00 19.06 С 11-15
{15}
20 км в посл. час дождь 10/10 570 м
[Sc]
+0.5 +0.3 99 -8 -8 994.7 994.0
03 19.06 В 7
{16}
2000 м дымка 10/10 210 м
[St]
+0.8 +0.5 98 -6 -6 993.8 993.1 -0.3 2 43
06 19.06 ЮВ 8-10
{11}
20 км 10/10 360 м
[Sc]
+1.2 +0.2 93 -6 -6 995.2 994.5
09 19.06 ЮВ 8
{11}
20 км 10/10 450 м
[Sc]
+1.3 0.0 91 -6 -6 997.1 996.4
12 19.06 Ю 5 20 км 10/10 480 м
[Sc]
+1.1 -0.2 91 -5 -5 998.8 998.1
15 19.06 ЮВ 2 20 км 10/10 450 м
[Sc]
+1.2 -0.1 91 -2 -2 999.1 998.4 +1.3
18 19.06 СВ 3 20 км 10/10 420 м
[Sc]
+0.2 +0.1 99 -5 -5 997.8 997.1
21 19.06 СЗ 4 1000 м сильн. снег 10/10 180 м
[Frnb Ns]
0.0 -0.1 99 -6 -6 995.3 994.6
00 20.06 З 7 2000 м снег 10/10 210 м
[Frnb Ns]
+0.1 -0.1 99 -7 -7 992.1 991.4
03 20.06 ЮЗ 8-11
{12}
10 км слаб. снег 10/0 450 м
[As op]
+0.2 -0.4 96 -7 -7 990.5 989.8 0.0 4 42
06 20.06 ЮЗ 10-12
{13}
20 км {снег} 8/6 270 м
[St Ac trans]
0.0 -1.5 90 -8 -8 991.2 990.5 -0.3
09 20.06 Ю 6
{12}
20 км 10/10 840 м
[Sc]
+0.1 -1.7 88 -7 -7 992.1 991.4
12 20.06 ЮВ 4 20 км 10/10 800 м
[Sc]
+0.8 -0.5 91 -5 -5 991.9 991.2
15 20.06 Ю 11-13
{13}
2000 м снег 10/0 500 м
[As op]
-0.2 -0.8 96 -9 -9 990.6 989.9 +1.0 0.0
18 20.06 Ю 15-18
{19}
200 м сильн. снег {метель} 10/10 180 м
[Frnb Ns]
-0.1 -0.3 99 -10 -10 989.4 988.7
21 20.06 Ю 14-17
{19}
200 м сильн. снег {метель} 10/10 180 м
[Frnb Ns]
+0.1 -0.2 98 -9 -9 990.0 989.3
00 21.06 Ю 13-16
{18}
4000 м слаб. снег {метель} 10/10 270 м
[Frnb Ns]
+0.1 -0.3 97 -9 -9 991.2 990.5
03 21.06 Ю 12-15
{16}
2000 м ледяной дождь (гололёд) {снег, метель} 10/10 240 м
[Frnb Ns]
+0.2 -0.1 98 -9 -9 992.9 992.2 -0.2 2 38
06 21.06 Ю 12-15
{15}
500 м сильн. снег {дождь} 10/10 270 м
[Frnb Ns]
+0.3 -0.2 96 -9 -9 994.9 994.2
09 21.06 Ю 11-14
{15}
2000 м снег 10/10 210 м
[Frnb Ns]
+0.4 -0.2 96 -8 -8 996.8 996.1
12 21.06 Ю 10-13
{15}
2000 м снег 10/10 270 м
[Frnb Ns]
+0.3 -0.1 97 -8 -8 997.9 997.2
15 21.06 Ю 9-12
{14}
4000 м слаб. снег 10/10 210 м
[Frnb Ns]
+0.1 -0.1 99 -8 -8 998.7 998.0 +0.5 2
18 21.06 Ю 7
{12}
20 км {снег} 10/10 300 м
[Sc]
-0.3 -0.5 99 -8 -8 999.5 998.8
21 21.06 Ю 5 20 км 10/1 600 м
[Sc Ac As]
-0.4 -1.1 95 -7 -7 1000.0 999.3
00 22.06 Ю 6 20 км 10/1 600 м
[Sc Ac As]
-0.3 -1.0 95 -7 -7 999.7 999.0
03 22.06 Ю 4 20 км 9/9 270 м
[St Ac trans]
-0.2 -0.9 95 -6 -5 998.9 998.2 -0.4 0.0 39
06 22.06 ЮЗ 4 20 км 10/10 210 м
[St]
-0.6 -1.2 96 -6 -6 997.9 997.2 -1.1
09 22.06 З 5 20 км 10/10 450 м
[Sc]
-0.2 -1.5 91 -6 -6 997.6 996.9
12 22.06 ЮЗ 5 20 км 10/10 400 м
[Sc]
0.0 -1.0 93 -6 -6 997.7 997.0
15 22.06 Ю 6 20 км 10/10 570 м
[Sc]
-0.3 -0.8 96 -7 -7 998.3 997.6 +0.3
18 22.06 ЮЗ 6 20 км {снег} 10/10 270 м
[St]
-0.3 -0.7 97 -7 -7 998.2 997.5
21 22.06 Ю 6 10 км слаб. снег 10/10 270 м
[Frnb Ns]
-0.2 -0.6 97 -7 -7 998.3 997.6
00 23.06 Ю 7 2000 м снег 10/10 270 м
[Frnb Ns]
0.0 -0.5 96 -7 -7 998.3 997.6
03 23.06 Ю 8
{10}
20 км {снег} 10/10 330 м
[Sc]
+0.2 -0.4 96 -7 -7 998.1 997.4 -0.5 0.4 37
06 23.06 Ю 8
{12}
2000 м снег 10/0 450 м
[As op]
-0.1 -0.7 96 -8 -8 997.7 997.0
09 23.06 Ю 12-15
{16}
1000 м сильн. снег 10/10 210 м
[Frnb Ns]
+0.1 -0.3 97 -9 -9 996.7 996.0
12 23.06 Ю 12-16
{17}
1000 м сильн. снег 10/10 270 м
[Frnb Ns]
+0.1 -0.3 97 -9 -9 995.1 994.4
15 23.06 Ю 11-14
{16}
20 км в посл. час снег 10/10 360 м
[Sc]
+0.1 -0.3 97 -9 -9 995.1 994.4 +0.5 2
18 23.06 ЮЗ 10-12
{14}
1000 м сильн. снег 10/0 330 м
[As op]
-0.4 -1.0 96 -9 -9 996.8 996.2
21 23.06 Ю 9-11
{13}
10 км слаб. снег {метель} 10/0 570 м
[As op]
-0.9 -2.1 92 -9 -9 999.1 998.4
00 24.06 Ю 7
{11}
20 км {снег, метель} 10/10 700 м
[Sc]
-1.3 -2.6 91 -9 -9 1000.2 999.5
03 24.06 Ю 6 20 км 10/10 700 м
[Sc]
-0.8 -2.2 90 -8 -8 1000.9 1000.2 -1.5 0.0 39
06 24.06 ЮЗ 4 20 км 10/10 500 м
[Sc]
-0.3 -2.2 87 -6 -6 1001.4 1000.7
09 24.06 ЮЗ 3 20 км 10/10 360 м
[Sc]
+0.1 -1.4 90 -5 -5 1002.2 1001.5
12 24.06 ЮЗ 2 20 км 9/0
[Ac As]
0.0 -1.2 92 -4 -2 1002.5 1001.8
15 24.06 СЗ 3 500 м туман 10/0
[Ac und]
-1.8 -2.1 98 -7 -7 1002.0 1001.3 +0.6
18 24.06 СЗ 3 500 м туман 10/10 150 м
[St]
-1.8 -1.9 99 -7 -7 1000.8 1000.1
21 24.06 З 3 20 км {туман} 9/1 300 м
[Sc As op Ci]
-2.0 -2.2 99 -7 -7 1000.1 999.4
00 25.06 З 3 20 км {туман} 8/0
[Ac trans Ci sp]
-2.6 -3.1 96 -8 -7 1000.3 999.6
03 25.06 ЮЗ 5 20 км 1/0
[Ci fib]
-0.3 -1.2 94 -7 -4 1001.1 1000.4 -2.7 37
06 25.06 ЮЗ 6 20 км ясно +0.2 -1.0 92 -7 -3 1001.9 1001.2

 

Местоположение метеостанции Имени Попова (Ямало-Ненецкий АО, Россия): широта 73.33 долгота 70.05 высота над уровнем моря 6 м.

В архиве по умолчанию представлена погода в Имени Попова за последнюю неделю. Архивные данные за месяц целиком и за предыдущие месяцы, начиная с января 2011 года, Вы можете получить, выбрав интересующий диапазон дат из раскрывающегося списка и нажав кнопку "Ввод!".


*Определитесь, кто Вы:
робот инопланетянин человек

Внимание! Время в таблицах - всемирное. Для получения местного времени необходимо прибавить поправку, которая равна 5 ч.

Смотрите также архив погоды в соседних городах и на ближайших метеорологических станциях:

Погода в Тамбее (Ямало-Ненецкий АО, Россия) (214 км)
Погода на Острове Диксон (Красноярский край, Россия) (329 км)
Погода в Сеяхе (Ямало-Ненецкий АО, Россия) (362 км)
Погода в Гыде (Ямало-Ненецкий АО, Россия) (396 км)
Погода на Мысе Желания (Архангельская область, Россия) (405 км)
Погода в Марресале (Ямало-Ненецкий АО, Россия) (418 км)
Погода в Сопочной Карге (Красноярский край, Россия) (450 км)
Погода на Островах Известий ЦИК (Красноярский край, Россия) (477 км)
Погода в Усть-Каре (Ненецкий АО, Россия) (489 км)
Погода в Амдерме (Ненецкий АО, Россия) (493 км)

Пояснения к столбцам:

Ветер - указаны скорость ветра в м/с - средняя за 10 мин, порывы в срок и между сроками (в фигурных скобках) и направление, откуда дует ветер: С - северный, СВ - северо-восточный, В - восточный, ЮВ - юго-восточный, Ю - южный, ЮЗ - юго-западный, З - западный, СЗ - северо-западный.
Видимость - горизонтальная дальность видимости в метрах или километрах. При видимости от 1 до 10 км при отсутствии осадков обычно наблюдается дымка, при ухудшении видимости до 1 км и менее - туман. В сухую погоду видимость может ухудшаться дымом, пылью или мглою.
Явления - указаны атмосферные явления, наблюдавшиеся в срок или в последний час перед сроком; фигурными скобками обозначены явления, наблюдавшиеся между сроками (за 1-3 часа до срока); квадратными скобками обозначены град или гололедные отложения с указанием их диаметра в мм.
Облачность - указаны через наклонную черту общая и нижняя облачность в баллах и высота нижней границы облаков в метрах; квадратными скобками обозначены формы облаков: Ci - перистые, Cs - перисто-слоистые, Cc - перисто-кучевые, Ac - высококучевые, As - высокослоистые, Sc - слоисто-кучевые, Ns - слоисто-дождевые, Cu - кучевые, Cb - кучево-дождевые. Подробнее классификацию облаков см. в Атласе облаков (PDF).
T - Температура воздуха - температура, измеренная на высоте 2 м над землей.
Td - Температура точки росы - температура, при понижении до которой содержащийся в воздухе водяной пар достигнет насыщения.
f - Относительная влажность воздуха - влажноcть воздуха, измеренная на высоте 2 м над землей.
Te - Эффективная температура - температура, которую ощущает одетый по сезону человек в тени. Характеристика душности погоды. При расчете учитывается влияние влажности воздуха и скорости ветра на теплоощущения человека.
Tes - Эффективная температура на солнце - температура, которую ощущает человек, с поправкой на солнечный нагрев. Характеристика знойности погоды. Зависит от высоты солнца над горизонтом, облачности и скорости ветра. Ночью, в пасмурную погоду, а также при ветре 12 м/с и более поправка равна нулю.
P - Атмосферное давление - приведенное к уровню моря атмосферное давление.
Po - Атмосферное давление - измеренное на уровне метеостанции атмосферное давление.
Tmin - Минимальная температура - минимум температуры воздуха на высоте 2 м над землей.
Tmax - Максимальная температура - максимум температуры воздуха на высоте 2 м над землей.
R - Количество осадков - Количество выпавших осадков за период времени, мм. При наведении курсора мыши на число - период времени, за который выпало указанное количество осадков.
R24 - Количество осадков - Количество выпавших осадков за 24 часа, мм.
S - Снежный покров - Высота снежного покрова, см. При наведении курсора мыши на число - состояние снежного покрова и степень покрытия местности в баллах.